sat.trackr.live / text

‹ back to catalog

STARLINK-5846

NORAD 56492 · 2023-064AW

PAYLOAD ACTIVE UNKNOWN

§ Identity

Operator
Country
US
Launch date
2023-05-10
Launch site
AFWTR
Launch vehicle
Mass (kg)
RCS (m²)

Purposes: comms

External: N2YO · Heavens-Above · Gunter

§ Orbital elements

Epoch: 2026-09-20T13:34:04.491264Z

Period
96.11 min
Inclination
70.0000°
Eccentricity
0.0003803
Mean motion
14.98323335 rev/d
Perigee alt
569.4 km
Apogee alt
574.7 km
Semi-major
6,950.2 km
B*
3.5462e-5
RAAN
333.0801°
Arg perigee
274.2072°
Mean anomaly
85.8652°
Rev number
18,542

§ Raw data

STARLINK-58461 56492U 23064AW  26263.56532976  .00000330  00000+0  35462-4 0  99922 56492  70.0000 333.0801 0003803 274.2072  85.8652 14.98323335185426

JSON: /api/v1/satellites/56492 · /tle

For live sub-satellite position, see the globe view (requires WebGL).

§ Visibility from observer

Set your observer location to see the next 7 days of passes ≥ 10°. The values pass through the URL so the page stays shareable.

No JS? Fill the form by hand. The geolocation button needs JavaScript.